[[{"header":{"parameterUnit":"m.s-1","parameterCategory":2,"la1":30.2991,"la2":30.254,"lo1":-89.0895,"lo2":-89.0444,"dy":0.0017,"dx":0.0017,"nx":28,"ny":28,"refTime":"2025-12-12T09:00:00:Z","depth":"0","parameterNumber":2,"parameterNumberName":"U-component_of_CURRENTS"},"data":[0,0,0,0,0,0,0,0,0,0,0,0,0,0,0,0,0,0,0,0,0,0,0,0,0,0,0,0,0,0,0,0,0,0,0,0,0,0,0,0,0,0,0,0,0,0,0,0,0,0,0,0,0,0,0,0,0,0,0.056,0.056,0,0.0563,0.0563,0.0563,0.0558,0.0558,0.0558,0.0558,0.0526,0.0525,0.0524,0,0,0,0,0,0,0,0,0,0,0,0,0,0.0571,0.057,0.056,0.056,0.0561,0.0563,0.0563,0.0563,0.0558,0.0558,0.0558,0.0558,0.0526,0.0525,0.0524,0,0,0,0,0,0,0,0,0,0,0,0,0,0.0568,0.057,0.056,0.056,0.056,0.0563,0.0563,0.0563,0.0558,0.0558,0.0558,0.0558,0.0526,0.0525,0.0524,0.0517,0,0,0.052,0.052,0,0,0,0,0,0,0,0,0.0568,0.0567,0.056,0.056,0.056,0.0561,0.0554,0.0546,0.0558,0.0558,0.0558,0.0558,0.0535,0.0533,0.0533,0.0516,0.0514,0.052,0.0519,0.0519,0.0518,0,0,0,0,0,0,0,0.0568,0.0567,0.056,0.056,0.056,0.0566,0.0565,0.0553,0.0545,0.0558,0.0558,0.056,0.0535,0.0534,0.0532,0.0514,0.052,0.0519,0.0518,0.0518,0.0533,0.0534,0,0,0,0,0,0,0.0569,0.0567,0.056,0.056,0.0565,0.0565,0.0565,0.056,0.0546,0.0545,0.056,0.056,0.0536,0.0533,0.0531,0.0549,0.0519,0.0518,0.0517,0.0531,0.0533,0.0534,0,0,0,0,0,0,0.0569,0.0568,0.056,0.0565,0.0565,0.0565,0.056,0.056,0.0559,0.0548,0.0546,0.0559,0.0536,0.0532,0.0535,0.0547,0.0517,0.0516,0.053,0.0532,0.0533,0.0568,0,0,0,0,0,0,0.0569,0.0568,0.0564,0.0565,0.0564,0.0561,0.056,0.056,0.0561,0.056,0.0546,0.0544,0.0536,0.0537,0.0534,0.0544,0.0515,0.0529,0.0531,0.0533,0.0566,0.0571,0.0576,0,0,0,0,0,0.0569,0.0563,0.0563,0.0563,0.0559,0.0561,0.0561,0.0561,0.0561,0.056,0.0563,0.0544,0.0549,0.0537,0.0533,0.0543,0.0528,0.053,0.0533,0.0564,0.057,0.0576,0,0,0,0,0,0,0.056,0.0562,0.0562,0.0555,0.0559,0.0561,0.056,0.0561,0.0563,0.0563,0.0554,0.0551,0.056,0.0549,0.0537,0.0557,0.0537,0.0539,0.0562,0.0568,0.0572,0.0576,0.0514,0,0,0,0,0,0.0558,0.0554,0.0559,0.0552,0.0555,0.0558,0.0559,0.056,0.0563,0.0563,0.0558,0.0559,0.0568,0.0565,0.0566,0.0569,0.0588,0.0576,0.0581,0.0585,0.0587,0.0638,0.0648,0.0543,0.0543,0.0542,0,0,0.055,0.0552,0.0548,0.055,0.0552,0.056,0.0558,0.0559,0.0569,0.0559,0.0567,0.0572,0.0574,0.0588,0.059,0.0578,0.0629,0.0589,0.0592,0.0592,0.0642,0.0652,0.0661,0.0544,0.0544,0.0544,0,0,0.0542,0.0537,0.0537,0.0543,0.0552,0.0557,0.0559,0.0565,0.057,0.0579,0.0586,0.0604,0.0598,0.0616,0.0621,0.0653,0.0655,0.0649,0.0671,0.0721,0.073,0.0738,0.0789,0.0801,0.0649,0.0649,0.0649,0,0.0531,0.0536,0.0537,0.0545,0.0553,0.0558,0.0566,0.0573,0.0581,0.0594,0.0584,0.062,0.0616,0.0655,0.0668,0.0663,0.0692,0.0646,0.0728,0.0736,0.0744,0.0793,0.0806,0.0651,0.0651,0.0651,0.0651,0,0.0531,0.0537,0.0538,0.0552,0.0559,0.0565,0.058,0.0591,0.0598,0.0611,0.0645,0.0656,0.0678,0.0684,0.0682,0.0738,0.0742,0.073,0.0711,0.0756,0.0806,0.0819,0.0654,0.0653,0.0653,0.0652,0,0,0.0502,0.0532,0.0532,0.0548,0.0564,0.0572,0.0592,0.0619,0.0644,0.0655,0.0693,0.0716,0.0726,0.0735,0.0744,0.0783,0.0864,0.0778,0.078,0.0827,0.0983,0.1022,0.104,0.0868,0.087,0.0872,0.1,0,0.0502,0.0523,0.0537,0.0559,0.0574,0.0592,0.0613,0.0639,0.0662,0.0699,0.0726,0.0759,0.0745,0.0764,0.0802,0.0846,0.0898,0.0831,0.0933,0.0936,0.0965,0.1057,0.1112,0.1235,0.1013,0.1015,0.1017,0,0.0499,0.0518,0.0538,0.0579,0.0586,0.0601,0.0646,0.0665,0.0718,0.0739,0.078,0.0798,0.0857,0.0838,0.0943,0.0901,0.0947,0.0981,0.0986,0.1018,0.1001,0.1152,0.1267,0.1339,0.1037,0.1035,0.1034,0,0.0485,0.052,0.0538,0.0548,0.059,0.0609,0.0632,0.0679,0.0707,0.077,0.0805,0.0863,0.0907,0.0965,0.1022,0.0992,0.1143,0.111,0.1196,0.1199,0.1264,0.1269,0.1459,0.1202,0.1202,0.1202,0.1201,0,0.0479,0.0495,0.0536,0.0546,0.0574,0.0606,0.0647,0.0677,0.0737,0.0784,0.0825,0.0885,0.0943,0.1023,0.106,0.118,0.1179,0.1229,0.1247,0.1279,0.1284,0.1359,0.1317,0.1206,0.1205,0.1204,0.1204,0,0.0455,0.048,0.0504,0.0552,0.0565,0.0583,0.0643,0.068,0.0738,0.0805,0.0828,0.0923,0.104,0.1105,0.1219,0.1249,0.1349,0.138,0.1414,0.1434,0.1568,0.1523,0.1583,0.1521,0.1507,0.1509,0.1511,0,0.0443,0.0454,0.0496,0.0511,0.0531,0.0571,0.0601,0.0664,0.071,0.0833,0.087,0.1003,0.1102,0.129,0.1387,0.1502,0.1449,0.1606,0.1559,0.1619,0.1582,0.1467,0.1399,0.1666,0.1669,0.1671,0.1673,0,0.0419,0.0432,0.045,0.0486,0.0516,0.0557,0.0613,0.0648,0.0736,0.0817,0.0941,0.1032,0.1241,0.1411,0.1566,0.1627,0.1587,0.1656,0.1724,0.1738,0.162,0.1555,0.1527,0.1693,0.1691,0.169,0.1688,0.1688,0.0391,0.0398,0.0427,0.0456,0.0497,0.0546,0.0577,0.0662,0.0745,0.0868,0.0963,0.1121,0.1392,0.1635,0.1714,0.1917,0.1739,0.1952,0.1899,0.1784,0.1706,0.1723,0.1895,0.1894,0.1893,0.1893,0.1892,0,0.0349,0.0369,0.0401,0.0441,0.0476,0.0511,0.0587,0.0628,0.0729,0.0876,0.0999,0.1305,0.1571,0.1794,0.2083,0.2163,0.2052,0.2178,0.2058,0.1976,0.2055,0.2049,0.2258,0.2258,0.2258,0.2258,0.2258,0.2258,0.0328,0.0337,0.0359,0.0402,0.044,0.0478,0.0514,0.0602,0.0711,0.0917,0.11,0.1255,0.1631,0.2115,0.2387,0.2385,0.224,0.2237,0.2121,0.2256,0.2231,0.2207,0.2202,0.2438,0.2438,0.2036,0.2033,0.2031]},{"header":{"parameterUnit":"m.s-1","parameterCategory":2,"la1":30.2991,"la2":30.254,"lo1":-89.0895,"lo2":-89.0444,"dy":0.0017,"dx":0.0017,"nx":28,"ny":28,"refTime":"2025-12-12T09:00:00:Z","depth":"0","parameterNumber":3,"parameterNumberName":"V-component_of_CURRENTS"},"data":[0,0,0,0,0,0,0,0,0,0,0,0,0,0,0,0,0,0,0,0,0,0,0,0,0,0,0,0,0,0,0,0,0,0,0,0,0,0,0,0,0,0,0,0,0,0,0,0,0,0,0,0,0,0,0,0,0,0,-0.2124,-0.2124,0,-0.215,-0.215,-0.2151,-0.2192,-0.2193,-0.2193,-0.2194,-0.2256,-0.2257,-0.2258,0,0,0,0,0,0,0,0,0,0,0,0,0,-0.2099,-0.2099,-0.2124,-0.2124,-0.2124,-0.215,-0.215,-0.2151,-0.2192,-0.2193,-0.2193,-0.2194,-0.2256,-0.2257,-0.2258,0,0,0,0,0,0,0,0,0,0,0,0,0,-0.2117,-0.2099,-0.2124,-0.2147,-0.2149,-0.215,-0.215,-0.2151,-0.2192,-0.2193,-0.2194,-0.2194,-0.2256,-0.2257,-0.2259,-0.2249,0,0,-0.2264,-0.2264,0,0,0,0,0,0,0,0,-0.2116,-0.2118,-0.2144,-0.2146,-0.2148,-0.2168,-0.2164,-0.2185,-0.2191,-0.2177,-0.2194,-0.2195,-0.2229,-0.2232,-0.2236,-0.2252,-0.2255,-0.2264,-0.2265,-0.2265,-0.2266,0,0,0,0,0,0,0,-0.2114,-0.2117,-0.2135,-0.2144,-0.2146,-0.2152,-0.2156,-0.2168,-0.2198,-0.2178,-0.2181,-0.2182,-0.223,-0.2235,-0.2238,-0.2256,-0.2264,-0.2265,-0.2266,-0.2267,-0.2265,-0.2264,0,0,0,0,0,0,-0.2108,-0.2115,-0.2135,-0.2136,-0.2133,-0.2152,-0.2156,-0.2161,-0.2198,-0.2203,-0.2181,-0.2184,-0.2231,-0.2236,-0.2241,-0.2222,-0.2265,-0.2267,-0.2268,-0.2266,-0.2264,-0.2263,0,0,0,0,0,0,-0.2108,-0.211,-0.2134,-0.2125,-0.2129,-0.2151,-0.2157,-0.2161,-0.2166,-0.2199,-0.2206,-0.218,-0.2232,-0.2238,-0.2245,-0.2226,-0.2268,-0.2269,-0.2267,-0.2265,-0.2264,-0.2192,0,0,0,0,0,0,-0.2107,-0.211,-0.2106,-0.2125,-0.2129,-0.2127,-0.2156,-0.2161,-0.2164,-0.2168,-0.2201,-0.2208,-0.2234,-0.2242,-0.2247,-0.2229,-0.227,-0.2268,-0.2266,-0.2264,-0.2196,-0.2188,-0.2182,0,0,0,0,0,-0.2106,-0.2095,-0.2105,-0.2107,-0.2125,-0.2126,-0.2128,-0.2148,-0.2163,-0.2157,-0.218,-0.2207,-0.2234,-0.2243,-0.2248,-0.223,-0.2269,-0.2267,-0.2264,-0.2199,-0.219,-0.2182,0,0,0,0,0,0,-0.2076,-0.2099,-0.2111,-0.2106,-0.2112,-0.2132,-0.2125,-0.2141,-0.2153,-0.2157,-0.2194,-0.2202,-0.2199,-0.2223,-0.2232,-0.2223,-0.2255,-0.2254,-0.2204,-0.2195,-0.2189,-0.2172,-0.2272,0,0,0,0,0,-0.2068,-0.2068,-0.2088,-0.208,-0.2083,-0.2102,-0.2104,-0.2117,-0.2132,-0.2139,-0.2161,-0.2181,-0.2192,-0.2201,-0.2214,-0.2209,-0.2218,-0.2201,-0.2194,-0.2188,-0.2177,-0.2174,-0.2166,-0.2256,-0.2256,-0.2256,0,0,-0.2049,-0.2063,-0.2062,-0.2074,-0.2081,-0.2071,-0.2106,-0.2102,-0.2093,-0.2143,-0.2135,-0.2157,-0.2185,-0.2179,-0.2181,-0.2198,-0.2164,-0.2185,-0.218,-0.2172,-0.2171,-0.2162,-0.2154,-0.2254,-0.2255,-0.2255,0,0,-0.201,-0.2029,-0.2014,-0.2019,-0.2028,-0.2041,-0.2037,-0.2053,-0.2061,-0.2056,-0.2088,-0.2096,-0.2114,-0.2129,-0.2139,-0.2101,-0.2126,-0.2107,-0.206,-0.2057,-0.205,-0.2043,-0.2029,-0.2021,-0.2105,-0.2105,-0.2105,0,-0.1985,-0.1975,-0.2006,-0.1993,-0.1989,-0.2024,-0.2,-0.201,-0.2024,-0.2024,-0.2044,-0.2058,-0.2088,-0.2078,-0.2068,-0.2085,-0.2084,-0.209,-0.2047,-0.2041,-0.2036,-0.2023,-0.2016,-0.2101,-0.2102,-0.2102,-0.2103,0,-0.1938,-0.1926,-0.1915,-0.1915,-0.1916,-0.19,-0.1921,-0.1919,-0.1935,-0.1948,-0.1942,-0.1975,-0.1986,-0.1994,-0.2022,-0.1996,-0.2006,-0.2037,-0.2067,-0.2022,-0.2011,-0.2005,-0.2096,-0.2097,-0.2099,-0.21,0,0,-0.1882,-0.1882,-0.1875,-0.1861,-0.1874,-0.1866,-0.1854,-0.1851,-0.1837,-0.1856,-0.1834,-0.186,-0.1884,-0.1897,-0.1929,-0.1928,-0.1893,-0.1962,-0.1963,-0.1943,-0.187,-0.1879,-0.1873,-0.1916,-0.1914,-0.1914,-0.1873,0,-0.1828,-0.1787,-0.1806,-0.1759,-0.1738,-0.1769,-0.1752,-0.1759,-0.1774,-0.1763,-0.1797,-0.1792,-0.1845,-0.1845,-0.1853,-0.1886,-0.1875,-0.19,-0.1919,-0.1919,-0.193,-0.1866,-0.1862,-0.1826,-0.1867,-0.1866,-0.1866,0,-0.1768,-0.1752,-0.1701,-0.1681,-0.1674,-0.1656,-0.1641,-0.1632,-0.1642,-0.1652,-0.1663,-0.1696,-0.1702,-0.1752,-0.1773,-0.1786,-0.1815,-0.184,-0.184,-0.1869,-0.1917,-0.188,-0.1814,-0.1838,-0.1857,-0.1857,-0.1858,0,-0.1706,-0.1672,-0.163,-0.1624,-0.1611,-0.1593,-0.1587,-0.1593,-0.1578,-0.1581,-0.1571,-0.1596,-0.1597,-0.1639,-0.1709,-0.1734,-0.1726,-0.1773,-0.1801,-0.1802,-0.1812,-0.1816,-0.1769,-0.1769,-0.1769,-0.1769,-0.1769,0,-0.164,-0.16,-0.1596,-0.157,-0.1518,-0.1534,-0.1487,-0.1488,-0.1479,-0.1449,-0.1509,-0.149,-0.1569,-0.159,-0.166,-0.1704,-0.169,-0.1769,-0.1785,-0.1786,-0.1788,-0.1824,-0.1812,-0.1767,-0.1768,-0.1768,-0.1768,0,-0.1568,-0.1567,-0.1513,-0.1492,-0.1486,-0.1446,-0.1425,-0.1392,-0.1397,-0.1358,-0.1353,-0.139,-0.1421,-0.15,-0.1557,-0.1631,-0.1701,-0.1702,-0.1691,-0.1707,-0.177,-0.1754,-0.1753,-0.1812,-0.1718,-0.1717,-0.1717,0,-0.1525,-0.1493,-0.1455,-0.1426,-0.1413,-0.1373,-0.1347,-0.1346,-0.1323,-0.1299,-0.1275,-0.1288,-0.1303,-0.1392,-0.152,-0.1617,-0.167,-0.167,-0.1724,-0.1746,-0.174,-0.1789,-0.1844,-0.1703,-0.1703,-0.1702,-0.1702,0,-0.1442,-0.1432,-0.1395,-0.1344,-0.1308,-0.1265,-0.1235,-0.1208,-0.1202,-0.117,-0.114,-0.1142,-0.1246,-0.1331,-0.1466,-0.1564,-0.1693,-0.167,-0.1693,-0.171,-0.1757,-0.1832,-0.1752,-0.1701,-0.1701,-0.1701,-0.1701,-0.1701,-0.1376,-0.1337,-0.13,-0.1249,-0.1207,-0.1156,-0.1107,-0.1088,-0.1035,-0.096,-0.1007,-0.0949,-0.1111,-0.1309,-0.1462,-0.1662,-0.1689,-0.1715,-0.1687,-0.1733,-0.1803,-0.1711,-0.1687,-0.1687,-0.1687,-0.1687,-0.1687,0,-0.1286,-0.1256,-0.121,-0.1138,-0.1072,-0.1079,-0.1025,-0.0965,-0.0893,-0.0828,-0.0786,-0.0766,-0.0953,-0.1165,-0.1422,-0.1599,-0.1774,-0.1702,-0.176,-0.1816,-0.1724,-0.1739,-0.1723,-0.1723,-0.1723,-0.1723,-0.1723,-0.1723,-0.1232,-0.1168,-0.1156,-0.103,-0.0981,-0.0869,-0.0829,-0.0756,-0.0696,-0.0543,-0.0441,-0.0412,-0.0447,-0.0959,-0.1344,-0.1518,-0.1671,-0.1744,-0.1815,-0.1717,-0.1717,-0.1717,-0.1731,-0.1713,-0.1713,-0.1973,-0.1974,-0.1975]}],[{"header":{"parameterUnit":"m.s-1","parameterCategory":2,"la1":30.2991,"la2":30.254,"lo1":-89.0895,"lo2":-89.0444,"dy":0.0017,"dx":0.0017,"nx":28,"ny":28,"refTime":"2025-12-12T09:00:00:Z","depth":"2","parameterNumber":2,"parameterNumberName":"U-component_of_CURRENTS"},"data":[0,0,0,0,0,0,0,0,0,0,0,0,0,0,0,0,0,0,0,0,0,0,0,0,0,0,0,0,0,0,0,0,0,0,0,0,0,0,0,0,0,0,0,0,0,0,0,0,0,0,0,0,0,0,0,0,0,0,0.0497,0.0498,0,0.0505,0.0505,0.0505,0.051,0.051,0.051,0.0511,0.0483,0.0482,0.0481,0,0,0,0,0,0,0,0,0,0,0,0,0,0.0476,0.0476,0.0497,0.0498,0.0498,0.0505,0.0505,0.0505,0.051,0.051,0.051,0.0511,0.0483,0.0482,0.0481,0,0,0,0,0,0,0,0,0,0,0,0,0,0.0482,0.0476,0.0497,0.0504,0.0505,0.0505,0.0505,0.0505,0.051,0.051,0.0511,0.0511,0.0484,0.0482,0.0481,0.0462,0,0,0.0476,0.0476,0,0,0,0,0,0,0,0,0.0482,0.0482,0.0502,0.0503,0.0504,0.051,0.0488,0.049,0.051,0.0505,0.0511,0.0511,0.049,0.0488,0.0485,0.0461,0.046,0.0476,0.0475,0.0474,0.0474,0,0,0,0,0,0,0,0.0481,0.0482,0.0497,0.0503,0.0504,0.0503,0.0504,0.0488,0.0492,0.0505,0.0506,0.0512,0.049,0.0486,0.0484,0.046,0.0476,0.0475,0.0474,0.0473,0.0481,0.0482,0,0,0,0,0,0,0.0486,0.0482,0.0497,0.0498,0.0497,0.0503,0.0504,0.0505,0.0493,0.0493,0.0511,0.0512,0.0489,0.0486,0.0483,0.0522,0.0474,0.0473,0.0472,0.048,0.0481,0.0482,0,0,0,0,0,0,0.0486,0.0487,0.0497,0.0493,0.0494,0.0503,0.0504,0.0505,0.0516,0.0498,0.0497,0.0524,0.0489,0.0485,0.0489,0.0519,0.0472,0.0471,0.0478,0.048,0.0481,0.056,0,0,0,0,0,0,0.0485,0.0487,0.0491,0.0493,0.0495,0.0509,0.0504,0.0505,0.052,0.0521,0.0508,0.0506,0.0489,0.0492,0.0488,0.0516,0.047,0.0477,0.0479,0.0481,0.0556,0.0564,0.0571,0,0,0,0,0,0.0484,0.0485,0.0491,0.0493,0.0499,0.051,0.0511,0.0516,0.052,0.0528,0.0525,0.0507,0.0502,0.0491,0.0486,0.0515,0.0476,0.0478,0.0481,0.0552,0.0562,0.0571,0,0,0,0,0,0,0.0475,0.0486,0.0493,0.0497,0.051,0.0512,0.0519,0.0525,0.0529,0.0532,0.0515,0.0512,0.0529,0.0507,0.0496,0.0523,0.0488,0.049,0.0544,0.0553,0.0561,0.057,0.0469,0,0,0,0,0,0.0477,0.0482,0.0495,0.0501,0.0509,0.0518,0.0524,0.0532,0.0535,0.0538,0.0534,0.053,0.0532,0.0532,0.0525,0.0533,0.0534,0.055,0.0558,0.0564,0.0569,0.0596,0.0607,0.049,0.049,0.049,0,0,0.0473,0.0482,0.0485,0.05,0.0509,0.0524,0.0522,0.0539,0.0556,0.0532,0.0554,0.0555,0.054,0.0558,0.0563,0.0545,0.0602,0.0567,0.0573,0.0574,0.06,0.0612,0.0622,0.0492,0.0492,0.0491,0,0,0.0472,0.0481,0.0488,0.0504,0.0527,0.0535,0.0545,0.0562,0.0576,0.0595,0.0591,0.0611,0.0604,0.061,0.0609,0.065,0.0642,0.0652,0.0697,0.0724,0.0734,0.0743,0.0778,0.079,0.0655,0.0655,0.0655,0,0.0469,0.0481,0.0492,0.0509,0.0526,0.0544,0.0562,0.0576,0.0595,0.0614,0.0611,0.064,0.063,0.0661,0.0683,0.0669,0.0686,0.0665,0.0735,0.0744,0.0751,0.0785,0.0797,0.0659,0.0659,0.0658,0.0658,0,0.0474,0.0491,0.0499,0.0527,0.0546,0.0565,0.0592,0.0618,0.064,0.0659,0.0703,0.0704,0.0724,0.073,0.072,0.0775,0.0772,0.0744,0.0715,0.0768,0.08,0.0811,0.0665,0.0664,0.0662,0.0661,0,0,0.0451,0.0493,0.0499,0.0521,0.056,0.0576,0.0615,0.0655,0.069,0.0721,0.0768,0.079,0.0809,0.0809,0.081,0.0836,0.0913,0.0822,0.0822,0.0863,0.0992,0.1033,0.1048,0.0904,0.0906,0.0907,0.1,0,0.0455,0.0486,0.051,0.0549,0.057,0.0608,0.0642,0.0685,0.0724,0.0774,0.0802,0.0842,0.0833,0.0859,0.0888,0.0904,0.0942,0.0892,0.0929,0.093,0.0964,0.1061,0.0805,0.087,0.101,0.1012,0.1013,0,0.0455,0.0479,0.0514,0.0571,0.0585,0.0614,0.0684,0.072,0.0791,0.0823,0.0878,0.0903,0.0964,0.094,0.1011,0.0984,0.1002,0.101,0.1013,0.1029,0.0991,0.0835,0.0884,0.103,0.1029,0.1028,0.1026,0,0.0435,0.0485,0.0514,0.0533,0.0595,0.0629,0.067,0.074,0.0781,0.0867,0.0911,0.0974,0.102,0.1052,0.1091,0.1059,0.1165,0.1113,0.1167,0.117,0.0947,0.0928,0.1167,0.1167,0.1167,0.1167,0.1166,0,0.043,0.0455,0.0511,0.0529,0.0577,0.0628,0.0689,0.0741,0.0819,0.0881,0.0942,0.1005,0.1053,0.1118,0.113,0.1207,0.1203,0.1207,0.1209,0.0971,0.0954,0.1074,0.1062,0.117,0.1169,0.1169,0.1168,0,0.0406,0.0439,0.0477,0.0544,0.0568,0.0607,0.0694,0.0742,0.082,0.0905,0.0941,0.1048,0.1154,0.1204,0.1269,0.1271,0.132,0.134,0.1077,0.1049,0.1294,0.1284,0.1415,0.1418,0.142,0.1422,0.1423,0,0.0397,0.0413,0.048,0.0504,0.0538,0.0599,0.0647,0.0733,0.0791,0.0932,0.0978,0.1113,0.1205,0.134,0.1352,0.1409,0.1414,0.1215,0.1114,0.1338,0.1325,0.1312,0.1301,0.0841,0.0837,0.0835,0.0832,0,0.0381,0.0405,0.0436,0.0484,0.0534,0.0591,0.067,0.0708,0.0824,0.0903,0.1034,0.1119,0.1254,0.1216,0.1304,0.1287,0.1189,0.1169,0.1452,0.0847,0.0811,0.0794,0.0798,0.0807,0.081,0.0812,0.0813,0.0814,0.0369,0.0384,0.0424,0.0475,0.0519,0.0584,0.0628,0.0709,0.0798,0.0884,0.0991,0.102,0.0989,0.1026,0.1086,0.1116,0.1176,0.1023,0.1023,0.1028,0.0975,0.0948,0.0959,0.0963,0.0965,0.0968,0.097,0,0.0367,0.0385,0.0418,0.0479,0.0521,0.0558,0.0645,0.0675,0.0761,0.0777,0.0854,0.0719,0.0687,0.0739,0.0743,0.0821,0.0759,0.0789,0.0605,0.0624,0.0643,0.0566,0.0445,0.0446,0.0446,0.0447,0,0,0.0367,0.0397,0.0422,0.048,0.0513,0.0568,0.0612,0.0643,0.0642,0.0618,0.0551,0.0503,0.0547,0.0413,0.0442,0.0452,0.0547,0.0445,0.0819,0.0605,0.0625,0.069,0.0584,0,0,0,0,0]},{"header":{"parameterUnit":"m.s-1","parameterCategory":2,"la1":30.2991,"la2":30.254,"lo1":-89.0895,"lo2":-89.0444,"dy":0.0017,"dx":0.0017,"nx":28,"ny":28,"refTime":"2025-12-12T09:00:00:Z","depth":"2","parameterNumber":3,"parameterNumberName":"V-component_of_CURRENTS"},"data":[0,0,0,0,0,0,0,0,0,0,0,0,0,0,0,0,0,0,0,0,0,0,0,0,0,0,0,0,0,0,0,0,0,0,0,0,0,0,0,0,0,0,0,0,0,0,0,0,0,0,0,0,0,0,0,0,0,0,0.0486,0.0484,0,0.0382,0.0381,0.0379,0.0291,0.029,0.0289,0.0288,0.015,0.0148,0.0145,0,0,0,0,0,0,0,0,0,0,0,0,0,0.0603,0.0601,0.0486,0.0484,0.0483,0.0382,0.0381,0.0379,0.0291,0.029,0.0289,0.0288,0.0151,0.0148,0.0145,0,0,0,0,0,0,0,0,0,0,0,0,0,0.0532,0.0601,0.0486,0.0427,0.042,0.0382,0.0381,0.0379,0.0292,0.029,0.0289,0.0287,0.0152,0.0148,0.0144,0.0149,0,0,0.0132,0.013,0,0,0,0,0,0,0,0,0.0536,0.0527,0.0437,0.0431,0.0424,0.0348,0.0371,0.03,0.0292,0.0341,0.0288,0.0287,0.0214,0.0205,0.019,0.0143,0.0137,0.0131,0.0129,0.0127,0.0126,0,0,0,0,0,0,0,0.0541,0.0531,0.0445,0.0435,0.0427,0.0404,0.0392,0.0358,0.0287,0.0337,0.033,0.0318,0.021,0.0194,0.0186,0.0135,0.0131,0.0128,0.0125,0.0124,0.0008,0.0007,0,0,0,0,0,0,0.0554,0.0536,0.0448,0.0442,0.0476,0.0403,0.039,0.0374,0.0288,0.0273,0.032,0.0314,0.0202,0.019,0.018,0.0125,0.0127,0.0123,0.0121,0.0008,0.0007,0.0007,0,0,0,0,0,0,0.0557,0.0548,0.0452,0.0486,0.0473,0.0402,0.0385,0.0373,0.0335,0.0275,0.026,0.0292,0.02,0.0186,0.0131,0.0121,0.0121,0.0118,0.0009,0.0008,0.0007,0.0051,0,0,0,0,0,0,0.0561,0.0549,0.0539,0.0487,0.0471,0.0424,0.0386,0.0372,0.0331,0.0323,0.0247,0.0234,0.0198,0.0138,0.0127,0.0115,0.0114,0.001,0.0009,0.0007,0.005,0.0051,0.0052,0,0,0,0,0,0.0566,0.0559,0.0539,0.0528,0.046,0.0424,0.0414,0.0359,0.0331,0.0319,0.0262,0.0235,0.0123,0.0134,0.0122,0.0109,0.001,0.0009,0.0008,0.0049,0.0051,0.0052,0,0,0,0,0,0,0.0602,0.0548,0.0525,0.0501,0.0463,0.0409,0.0389,0.0356,0.0303,0.0286,0.023,0.0213,0.016,0.013,0.0144,0.0071,0.0061,0.0057,0.0097,0.0098,0.0099,0.0118,0.0111,0,0,0,0,0,0.0608,0.0588,0.0537,0.0517,0.0498,0.0443,0.0419,0.0383,0.0333,0.0306,0.0254,0.0197,0.015,0.012,0.0076,0.0041,0.0016,0.0022,0.0023,0.0025,0.003,-0.0018,-0.002,0.0002,0.0002,0.0002,0,0,0.0617,0.0585,0.0572,0.0524,0.0488,0.0464,0.0424,0.0386,0.0362,0.0302,0.0249,0.02,0.0141,0.0097,0.0071,0.0066,0.0006,0.0023,0.0025,0.0029,-0.002,-0.0022,-0.0024,0.0001,0.0001,0.0002,0,0,0.0629,0.0595,0.0581,0.0553,0.0502,0.0472,0.046,0.04,0.0366,0.0319,0.0266,0.0213,0.0142,0.0099,0.0069,0.0052,0.0015,0.0031,0.0051,0.0004,0.0002,0.0,-0.0024,-0.0028,0.0031,0.0031,0.0031,0,0.0637,0.0613,0.0574,0.0554,0.0532,0.0477,0.046,0.0425,0.0355,0.0332,0.0306,0.0196,0.0146,0.0093,0.0081,0.0055,0.0028,0.0053,0.0007,0.0005,0.0002,-0.0022,-0.0028,0.0033,0.0033,0.0033,0.0033,0,0.0639,0.0617,0.0607,0.0565,0.0542,0.0518,0.047,0.044,0.0395,0.0357,0.0293,0.0224,0.016,0.0133,0.0099,0.0052,0.004,0.0017,0.001,0.0003,-0.0023,-0.0029,0.0036,0.0035,0.0035,0.0034,0,0,0.065,0.0616,0.0607,0.0597,0.0544,0.0526,0.0496,0.0455,0.0435,0.0366,0.0336,0.0247,0.0207,0.017,0.0117,0.0074,0.0031,0.0039,0.0035,0.0027,-0.0061,-0.0032,-0.0036,-0.0004,-0.0005,-0.0006,-0.0067,0,0.0655,0.0638,0.0615,0.0598,0.0584,0.0542,0.0525,0.0483,0.0439,0.04,0.0327,0.0273,0.0222,0.0187,0.0136,0.0052,0.0014,0.005,-0.0063,-0.0066,-0.003,-0.0043,-0.0029,-0.0079,-0.0073,-0.0074,-0.0075,0,0.0652,0.0643,0.0632,0.0618,0.0607,0.0591,0.0558,0.0537,0.048,0.0444,0.0382,0.0326,0.0246,0.0207,0.0073,0.0096,0.0023,-0.0035,-0.0039,-0.003,-0.0049,-0.0076,-0.0091,-0.0086,-0.0085,-0.0084,-0.0084,0,0.0672,0.0651,0.0647,0.0637,0.0613,0.0602,0.0587,0.0543,0.053,0.0467,0.0448,0.0351,0.0294,0.019,0.0067,0.0062,-0.0068,-0.009,-0.0126,-0.0124,-0.0143,-0.014,-0.0175,-0.0175,-0.0175,-0.0175,-0.0174,0,0.0681,0.0674,0.0656,0.065,0.0651,0.0626,0.0618,0.0591,0.0559,0.0547,0.0468,0.0439,0.0283,0.0193,0.0084,-0.0036,-0.006,-0.0119,-0.0141,-0.0126,-0.0121,-0.0154,-0.0151,-0.0177,-0.0176,-0.0176,-0.0176,0,0.0698,0.0682,0.068,0.0664,0.0657,0.0657,0.0642,0.0646,0.0606,0.0589,0.0571,0.0487,0.0372,0.0234,0.0066,-0.0009,-0.0127,-0.0163,-0.0119,-0.0133,-0.0153,-0.0147,-0.0204,-0.0204,-0.0204,-0.0203,-0.0203,0,0.0707,0.0707,0.0694,0.0697,0.0686,0.0682,0.0686,0.0662,0.0669,0.0622,0.0624,0.0522,0.0472,0.0261,0.0105,-0.0057,-0.0119,-0.0159,-0.0162,-0.0142,-0.0158,-0.0153,-0.0148,-0.0174,-0.0173,-0.0173,-0.0173,0,0.0734,0.0724,0.0727,0.0728,0.073,0.0748,0.0751,0.0765,0.0742,0.0735,0.072,0.0685,0.0507,0.0337,0.0123,0.0023,-0.0129,-0.0153,-0.0172,-0.0153,-0.0114,-0.0129,-0.0126,-0.0169,-0.0169,-0.017,-0.017,-0.017,0.0751,0.0761,0.0759,0.0763,0.0777,0.081,0.0834,0.0854,0.0877,0.087,0.083,0.0719,0.0529,0.0237,0.0101,-0.0066,-0.0054,-0.0156,-0.0158,-0.016,-0.013,-0.0091,-0.0135,-0.0135,-0.0136,-0.0136,-0.0136,0,0.0771,0.0777,0.0794,0.0808,0.0842,0.0833,0.0878,0.0907,0.0952,0.0903,0.0903,0.0608,0.0462,0.021,-0.0006,-0.0091,-0.0092,-0.0161,-0.0171,-0.0173,-0.0175,-0.0147,-0.0157,-0.0157,-0.0158,-0.0158,0,0,0.0779,0.0795,0.0805,0.0857,0.0873,0.0922,0.0953,0.0991,0.0961,0.087,0.0723,0.0705,0.0392,0.0199,0.0081,-0.0056,-0.0079,-0.0062,-0.0029,-0.0022,-0.0023,-0.0152,-0.0107,0,0,0,0,0]}],[{"header":{"parameterUnit":"m.s-1","parameterCategory":2,"la1":30.2991,"la2":30.254,"lo1":-89.0895,"lo2":-89.0444,"dy":0.0017,"dx":0.0017,"nx":28,"ny":28,"refTime":"2025-12-12T09:00:00:Z","depth":"4","parameterNumber":2,"parameterNumberName":"U-component_of_CURRENTS"},"data":[0,0,0,0,0,0,0,0,0,0,0,0,0,0,0,0,0,0,0,0,0,0,0,0,0,0,0,0,0,0,0,0,0,0,0,0,0,0,0,0,0,0,0,0,0,0,0,0,0,0,0,0,0,0,0,0,0,0,-0.0043,-0.0043,0,-0.0039,-0.004,-0.004,-0.0021,-0.0021,-0.002,-0.002,-0.0034,-0.0035,-0.0036,0,0,0,0,0,0,0,0,0,0,0,0,0,-0.0071,-0.007,-0.0043,-0.0043,-0.0043,-0.0039,-0.004,-0.004,-0.0021,-0.0021,-0.002,-0.002,-0.0034,-0.0035,-0.0036,0,0,0,0,0,0,0,0,0,0,0,0,0,-0.0063,-0.007,-0.0043,-0.0033,-0.0032,-0.0039,-0.004,-0.004,-0.0021,-0.0021,-0.002,-0.0019,-0.0033,-0.0035,-0.0036,-0.0059,0,0,-0.004,-0.004,0,0,0,0,0,0,0,0,-0.0063,-0.0062,-0.0035,-0.0034,-0.0032,-0.0029,-0.0054,-0.0047,-0.0022,-0.0026,-0.002,-0.0019,-0.0034,-0.0035,-0.0037,-0.006,-0.006,-0.004,-0.0041,-0.0041,-0.0041,0,0,0,0,0,0,0,-0.0064,-0.0062,-0.0043,-0.0034,-0.0033,-0.0041,-0.0038,-0.0053,-0.0036,-0.0026,-0.0024,-0.0023,-0.0034,-0.0036,-0.0037,-0.006,-0.004,-0.0041,-0.0042,-0.0042,-0.0119,-0.012,0,0,0,0,0,0,-0.0061,-0.0063,-0.0043,-0.0042,-0.0045,-0.0041,-0.0038,-0.0032,-0.0035,-0.0034,-0.0023,-0.0022,-0.0034,-0.0036,-0.0038,-0.0066,-0.0041,-0.0042,-0.0043,-0.0117,-0.0119,-0.012,0,0,0,0,0,0,-0.0062,-0.006,-0.0043,-0.0052,-0.005,-0.0041,-0.0034,-0.0032,-0.0025,-0.0033,-0.0032,-0.0016,-0.0034,-0.0036,-0.0051,-0.0066,-0.0043,-0.0044,-0.0116,-0.0118,-0.012,-0.0121,0,0,0,0,0,0,-0.0063,-0.006,-0.0051,-0.0052,-0.005,-0.004,-0.0034,-0.0033,-0.0025,-0.0023,-0.0027,-0.0028,-0.0033,-0.0049,-0.0052,-0.0067,-0.0045,-0.0114,-0.0117,-0.0119,-0.0119,-0.0123,-0.0126,0,0,0,0,0,-0.0064,-0.0056,-0.005,-0.0048,-0.0039,-0.004,-0.0039,-0.0031,-0.0025,-0.0022,-0.0031,-0.0027,-0.0067,-0.0051,-0.0054,-0.007,-0.0113,-0.0116,-0.0119,-0.0118,-0.0122,-0.0126,0,0,0,0,0,0,-0.0064,-0.0053,-0.0047,-0.0036,-0.0034,-0.0036,-0.003,-0.0028,-0.0033,-0.003,-0.0038,-0.004,-0.0062,-0.0069,-0.0051,-0.0102,-0.0092,-0.0096,-0.009,-0.0094,-0.0097,-0.0087,-0.0046,0,0,0,0,0,-0.006,-0.0048,-0.0045,-0.0035,-0.0033,-0.0031,-0.0029,-0.0026,-0.0031,-0.003,-0.0038,-0.0055,-0.008,-0.0086,-0.0106,-0.0128,-0.0122,-0.0144,-0.0147,-0.015,-0.0146,-0.0164,-0.0167,-0.013,-0.013,-0.0129,0,0,-0.0058,-0.005,-0.0043,-0.0034,-0.0031,-0.003,-0.0027,-0.0023,-0.0027,-0.0034,-0.0042,-0.0063,-0.0089,-0.0116,-0.0128,-0.012,-0.0155,-0.0153,-0.0155,-0.015,-0.0167,-0.017,-0.0173,-0.0131,-0.0131,-0.0131,0,0,-0.0051,-0.0039,-0.0028,-0.0027,-0.002,-0.0023,-0.002,-0.0023,-0.0025,-0.0042,-0.0056,-0.0083,-0.0111,-0.0135,-0.0151,-0.0185,-0.0172,-0.0196,-0.0199,-0.0217,-0.0219,-0.0222,-0.0199,-0.02,-0.0196,-0.0196,-0.0196,0,-0.0045,-0.0031,-0.0027,-0.002,-0.0018,-0.0019,-0.0015,-0.0024,-0.0034,-0.0043,-0.0044,-0.0103,-0.0122,-0.0163,-0.0179,-0.019,-0.0184,-0.0178,-0.0218,-0.0221,-0.0223,-0.02,-0.02,-0.0196,-0.0196,-0.0196,-0.0196,0,-0.0035,-0.0023,-0.0017,-0.0008,-0.0009,-0.0005,-0.0016,-0.0023,-0.0032,-0.0045,-0.0083,-0.0117,-0.015,-0.0171,-0.0185,-0.0221,-0.0204,-0.0219,-0.0202,-0.0226,-0.0201,-0.0201,-0.0197,-0.0196,-0.0196,-0.0196,0,0,-0.0021,-0.001,-0.0006,0.0001,-0.0001,-0.0,-0.0014,-0.0027,-0.0034,-0.0063,-0.0081,-0.0141,-0.0157,-0.0179,-0.0206,-0.0226,-0.0236,-0.0228,-0.0229,-0.0192,-0.0243,-0.0178,-0.0172,-0.0257,-0.0258,-0.0258,-0.0211,0,-0.001,0.0007,0.0005,0.0015,0.0021,0.001,-0.0002,-0.0019,-0.0038,-0.0058,-0.0104,-0.0132,-0.0162,-0.0179,-0.0208,-0.0233,-0.024,-0.0245,-0.0237,-0.0236,-0.0165,-0.0172,-0.026,-0.0211,-0.0211,-0.0211,-0.0211,0,0.0003,0.0014,0.0027,0.003,0.0032,0.0029,0.0015,0.0003,-0.0031,-0.0048,-0.0088,-0.0115,-0.0157,-0.0178,-0.022,-0.0221,-0.023,-0.0244,-0.0243,-0.0182,-0.0172,-0.0188,-0.0211,-0.0211,-0.0211,-0.0211,-0.0211,0,0.0014,0.0029,0.0042,0.0043,0.0041,0.0038,0.0032,0.0005,-0.0002,-0.004,-0.0043,-0.0102,-0.0116,-0.0159,-0.0183,-0.0205,-0.0207,-0.0241,-0.0185,-0.0179,-0.0249,-0.0248,-0.0262,-0.0262,-0.0262,-0.0262,-0.0262,0,0.0023,0.0035,0.0049,0.0054,0.0063,0.0053,0.0051,0.0033,0.0015,0.0012,-0.0035,-0.0049,-0.0113,-0.0122,-0.0162,-0.0154,-0.0187,-0.0175,-0.0168,-0.0249,-0.0248,-0.0248,-0.0247,-0.026,-0.0261,-0.0261,-0.0261,0,0.0024,0.0038,0.0053,0.0063,0.0068,0.007,0.0073,0.0069,0.0055,0.0051,0.0045,0.0003,-0.0012,-0.0041,-0.0087,-0.0101,-0.0119,-0.0105,-0.0146,-0.0143,-0.0084,-0.0084,-0.0051,-0.0048,-0.0046,-0.0044,-0.0043,0,0.0021,0.0031,0.006,0.0074,0.0079,0.0087,0.0091,0.0082,0.0084,0.0079,0.008,0.0076,0.005,0.0047,-0.0002,-0.0024,-0.0038,-0.0025,-0.0103,-0.0069,-0.0065,-0.0069,-0.0072,-0.0039,-0.0038,-0.0038,-0.0037,0,0.0008,0.0025,0.0037,0.0075,0.0091,0.0103,0.0113,0.0121,0.0116,0.0122,0.0116,0.0105,0.0109,0.0065,0.0085,0.0045,-0.0032,-0.0003,-0.001,-0.0083,-0.0054,-0.0054,-0.0059,-0.003,-0.0031,-0.0032,-0.0032,0,-0.0005,0.0004,0.0034,0.0063,0.0097,0.0111,0.0112,0.0124,0.013,0.014,0.0137,0.012,0.0112,0.0104,0.0095,0.01,0.0068,0.0046,0.0036,0.0027,0.0028,0.0074,0.0153,0,0,0,0,0,-0.0021,-0.0008,0.0019,0.0052,0.0092,0.0108,0.0128,0.0127,0.0142,0.0149,0.0148,0.0147,0.0141,0.0116,0.013,0.0115,0.0064,0.0132,0.0031,0.0012,0.0003,-0.0004,0,0,0,0,0,0,-0.0033,-0.0009,0.0009,0.0047,0.0071,0.0099,0.0112,0.0114,0.0119,0.0137,0.0125,0.0153,0.0135,0.0134,0.0128,0.013,0.0069,0.0134,0.0135,0.0017,0.0009,0.0002,-0.0009,0,0,0,0,0]},{"header":{"parameterUnit":"m.s-1","parameterCategory":2,"la1":30.2991,"la2":30.254,"lo1":-89.0895,"lo2":-89.0444,"dy":0.0017,"dx":0.0017,"nx":28,"ny":28,"refTime":"2025-12-12T09:00:00:Z","depth":"4","parameterNumber":3,"parameterNumberName":"V-component_of_CURRENTS"},"data":[0,0,0,0,0,0,0,0,0,0,0,0,0,0,0,0,0,0,0,0,0,0,0,0,0,0,0,0,0,0,0,0,0,0,0,0,0,0,0,0,0,0,0,0,0,0,0,0,0,0,0,0,0,0,0,0,0,0,-0.005,-0.0051,0,-0.0104,-0.0104,-0.0105,-0.0095,-0.0094,-0.0093,-0.0093,-0.0129,-0.0131,-0.0132,0,0,0,0,0,0,0,0,0,0,0,0,0,0.0033,0.0031,-0.005,-0.0051,-0.0051,-0.0104,-0.0104,-0.0105,-0.0095,-0.0094,-0.0093,-0.0092,-0.0128,-0.013,-0.0132,0,0,0,0,0,0,0,0,0,0,0,0,0,-0.001,0.0031,-0.005,-0.0053,-0.0054,-0.0103,-0.0104,-0.0105,-0.0096,-0.0094,-0.0093,-0.0092,-0.0127,-0.013,-0.0133,-0.0176,0,0,-0.0141,-0.0142,0,0,0,0,0,0,0,0,-0.0007,-0.0013,-0.0052,-0.0053,-0.0054,-0.0092,-0.0089,-0.0128,-0.0096,-0.0079,-0.0092,-0.0091,-0.0116,-0.012,-0.0132,-0.0178,-0.0179,-0.0141,-0.0143,-0.0144,-0.0145,0,0,0,0,0,0,0,-0.0004,-0.001,-0.0071,-0.0053,-0.0054,-0.0062,-0.0066,-0.0096,-0.0104,-0.008,-0.008,-0.0088,-0.0116,-0.013,-0.0133,-0.018,-0.0141,-0.0144,-0.0145,-0.0146,-0.0251,-0.0252,0,0,0,0,0,0,0.0001,-0.0008,-0.0069,-0.0072,-0.0028,-0.0065,-0.0069,-0.0081,-0.0104,-0.0106,-0.0089,-0.0087,-0.0126,-0.013,-0.0134,-0.0166,-0.0144,-0.0146,-0.0148,-0.025,-0.0251,-0.0252,0,0,0,0,0,0,0.0002,-0.0005,-0.0067,-0.0041,-0.005,-0.0067,-0.008,-0.0082,-0.0094,-0.011,-0.0112,-0.0098,-0.0125,-0.013,-0.0171,-0.0168,-0.0148,-0.015,-0.0248,-0.025,-0.0252,-0.0243,0,0,0,0,0,0,0.0005,-0.0004,-0.0012,-0.0041,-0.0051,-0.0098,-0.0082,-0.0084,-0.0101,-0.0099,-0.0119,-0.0121,-0.0124,-0.0167,-0.0173,-0.0171,-0.0152,-0.0247,-0.0249,-0.0251,-0.0242,-0.0245,-0.0247,0,0,0,0,0,0.0008,-0.001,-0.0012,-0.002,-0.0062,-0.0099,-0.0106,-0.0112,-0.0103,-0.0116,-0.0133,-0.012,-0.0184,-0.0171,-0.0178,-0.0176,-0.0246,-0.0248,-0.0251,-0.0241,-0.0244,-0.0247,0,0,0,0,0,0,0.002,-0.0012,-0.0015,-0.0042,-0.0069,-0.0098,-0.0113,-0.0118,-0.0143,-0.014,-0.0147,-0.0152,-0.0184,-0.0193,-0.0178,-0.0215,-0.0209,-0.0213,-0.0199,-0.0202,-0.0204,-0.0195,-0.0154,0,0,0,0,0,0.0017,-0.0004,-0.0034,-0.0057,-0.007,-0.0092,-0.0108,-0.0116,-0.0141,-0.0149,-0.0164,-0.0181,-0.0204,-0.0212,-0.0238,-0.0267,-0.0262,-0.0269,-0.0271,-0.0273,-0.0272,-0.0272,-0.0274,-0.0261,-0.0261,-0.0261,0,0,0.0016,-0.0006,-0.0017,-0.0056,-0.0076,-0.0104,-0.0098,-0.0128,-0.0149,-0.0152,-0.0186,-0.0198,-0.0218,-0.0245,-0.0258,-0.0248,-0.0274,-0.0276,-0.0277,-0.0276,-0.0275,-0.0276,-0.0277,-0.0263,-0.0262,-0.0262,0,0,0.0001,-0.0018,-0.0038,-0.0063,-0.0098,-0.0116,-0.0125,-0.0158,-0.0168,-0.0208,-0.0209,-0.0227,-0.0264,-0.0272,-0.0281,-0.0318,-0.0293,-0.0317,-0.0311,-0.0311,-0.0312,-0.0312,-0.0301,-0.03,-0.0308,-0.0308,-0.0308,0,0.0003,-0.0028,-0.0051,-0.0079,-0.0099,-0.0121,-0.0147,-0.0171,-0.0212,-0.0223,-0.0218,-0.0264,-0.0278,-0.0301,-0.0304,-0.032,-0.0308,-0.0293,-0.0311,-0.0312,-0.0312,-0.03,-0.03,-0.0308,-0.0308,-0.0308,-0.0308,0,-0.0027,-0.0052,-0.0069,-0.0108,-0.0135,-0.0165,-0.0198,-0.0222,-0.0233,-0.025,-0.0279,-0.0298,-0.0313,-0.0319,-0.032,-0.0327,-0.0314,-0.0317,-0.0296,-0.0312,-0.03,-0.0299,-0.0308,-0.0308,-0.0308,-0.0308,0,0,-0.0018,-0.0076,-0.0081,-0.01,-0.0152,-0.0176,-0.0216,-0.0253,-0.0267,-0.0296,-0.031,-0.0339,-0.0328,-0.0338,-0.0335,-0.0331,-0.032,-0.0315,-0.0315,-0.0289,-0.0302,-0.0309,-0.0309,-0.0314,-0.0314,-0.0315,-0.0289,0,-0.0032,-0.0079,-0.0108,-0.0152,-0.0178,-0.021,-0.0242,-0.0277,-0.0299,-0.032,-0.0332,-0.0343,-0.0341,-0.0329,-0.033,-0.0326,-0.0318,-0.0325,-0.0304,-0.0303,-0.0296,-0.0309,-0.0315,-0.0289,-0.0289,-0.0289,-0.0288,0,-0.0048,-0.0078,-0.0118,-0.0167,-0.018,-0.0206,-0.0248,-0.0278,-0.0314,-0.0324,-0.0334,-0.0339,-0.0341,-0.0332,-0.0327,-0.0325,-0.031,-0.0307,-0.0306,-0.0315,-0.031,-0.0274,-0.0287,-0.0287,-0.0287,-0.0287,-0.0287,0,-0.003,-0.0085,-0.0114,-0.0133,-0.0192,-0.0206,-0.0231,-0.0272,-0.0288,-0.031,-0.0309,-0.0327,-0.0314,-0.0315,-0.0305,-0.0305,-0.0297,-0.03,-0.0297,-0.0297,-0.0298,-0.0298,-0.0296,-0.0296,-0.0296,-0.0296,-0.0296,0,-0.0039,-0.0062,-0.0102,-0.012,-0.0145,-0.0185,-0.0206,-0.0233,-0.0258,-0.0268,-0.0292,-0.0292,-0.0304,-0.0305,-0.0303,-0.0297,-0.0294,-0.0298,-0.0295,-0.0296,-0.0297,-0.0297,-0.0297,-0.0295,-0.0295,-0.0295,-0.0295,0,-0.0028,-0.0055,-0.0087,-0.013,-0.0139,-0.0153,-0.0183,-0.0198,-0.0216,-0.0225,-0.0221,-0.0252,-0.0253,-0.0273,-0.0272,-0.0284,-0.0286,-0.0282,-0.0275,-0.0271,-0.0283,-0.0284,-0.0279,-0.0279,-0.0279,-0.0279,-0.0279,0,-0.0035,-0.0048,-0.0081,-0.0089,-0.0108,-0.0127,-0.0139,-0.0169,-0.0176,-0.0198,-0.0196,-0.0206,-0.0224,-0.0232,-0.026,-0.0272,-0.0275,-0.0272,-0.029,-0.0286,-0.0283,-0.0284,-0.0284,-0.0279,-0.0279,-0.0279,-0.0279,0,-0.0046,-0.0049,-0.0073,-0.0076,-0.0085,-0.0103,-0.0115,-0.0114,-0.0139,-0.0153,-0.0159,-0.0181,-0.0194,-0.0224,-0.0234,-0.0246,-0.0278,-0.0273,-0.0273,-0.029,-0.0287,-0.0284,-0.0284,-0.028,-0.0279,-0.0279,-0.0279,0,-0.005,-0.0058,-0.0068,-0.0072,-0.0075,-0.0077,-0.009,-0.0097,-0.0106,-0.0124,-0.0123,-0.0153,-0.0172,-0.0209,-0.0221,-0.0237,-0.0244,-0.0247,-0.0248,-0.0248,-0.0258,-0.0251,-0.0229,0,0,0,0,0,-0.0058,-0.006,-0.0065,-0.0067,-0.0062,-0.0062,-0.0076,-0.0089,-0.0099,-0.0094,-0.0107,-0.012,-0.0158,-0.0186,-0.02,-0.0231,-0.0252,-0.025,-0.0257,-0.0282,-0.0281,-0.0301,0,0,0,0,0,0,-0.0068,-0.007,-0.0066,-0.0052,-0.0045,-0.0044,-0.005,-0.0063,-0.0064,-0.0076,-0.0096,-0.0115,-0.0153,-0.0136,-0.0193,-0.0203,-0.0209,-0.0272,-0.0272,-0.0282,-0.0281,-0.0281,-0.0301,0,0,0,0,0]}]]